Alva, OK

8:32 PM CDT on July 25, 2017 (GMT -0500)
Alva Regional

Weather History for KAVK - November, 2012

Change the Weather History Date:

Wednesday, November 28, 2012

  Actual Average Record
Temperature  
Mean Temperature 42 °F -  
Max Temperature 60 °F 53 °F 76 °F (1949)
Min Temperature 23 °F 27 °F 8 °F (1952)
Degree Days  
Heating Degree Days 24    
Moisture  
Dew Point 28 °F    
Average Humidity 64    
Maximum Humidity 86    
Minimum Humidity 34    
Precipitation  
Precipitation 0.00 in - - ()
Sea Level Pressure  
Sea Level Pressure 30.24 in    
Wind  
Wind Speed 6 mph (SE)    
Max Wind Speed 16 mph    
Max Gust Speed 21 mph    
Visibility 10 miles    
Events      
Averages and records for this station are not official NWS values.
T = Trace of Precipitation, MM = Missing Value Source: NWS Daily Summary

Daily Weather History Graph

Daily Weather History Graph

Search for Another Location

Airport or City:

Trip Planner

Search our weather history database for the weather conditions in past years. The results will help you decide how hot, cold, wet, or windy it might be!

Date:

Astronomy

Nov. 28, 2012 Rise Set
Actual Time 7:26 AM CST 5:19 PM CST
Civil Twilight 6:58 AM CST 5:47 PM CST
Nautical Twilight 6:26 AM CST 6:19 PM CST
Astronomical Twilight 5:54 AM CST 6:50 PM CST
Moon 5:35 PM CST (11/28) 7:25 AM CST (11/28)
Length of Visible Light 10h 49m
Length of Day
9h 52m
Full, 100% of the Moon is Illuminated
Nov 28
Full
Dec 6
Last Quarter
Dec 13
New
Dec 19
First Quarter
Dec 28
Full

Hourly Weather History & Observations

Time (CST) Temp. Windchill Dew Point Humidity Pressure Visibility Wind Dir Wind Speed Gust Speed Precip Events Conditions
12:15 AM 32.0 °F 27.5 °F 23.0 °F 69% 30.29 in 10.0 mi SE 4.6 mph - N/A   Partly Cloudy
12:35 AM 32.0 °F 27.5 °F 23.0 °F 69% 30.29 in 10.0 mi East 4.6 mph - N/A   Scattered Clouds
12:55 AM 32.0 °F 28.7 °F 23.0 °F 69% 30.29 in 10.0 mi ESE 3.5 mph - N/A   Scattered Clouds
1:15 AM 32.0 °F 26.4 °F 23.0 °F 69% 30.29 in 10.0 mi East 5.8 mph - N/A   Scattered Clouds
1:35 AM 32.0 °F 27.5 °F 23.0 °F 69% 30.30 in 10.0 mi East 4.6 mph - N/A   Scattered Clouds
1:55 AM 26.6 °F 20.0 °F 21.2 °F 80% 30.30 in 10.0 mi NE 5.8 mph - N/A   Scattered Clouds
2:15 AM 28.4 °F - 23.0 °F 80% 30.30 in 10.0 mi Calm Calm - N/A   Scattered Clouds
2:35 AM 28.4 °F 23.3 °F 21.2 °F 74% 30.30 in 10.0 mi ENE 4.6 mph - N/A   Scattered Clouds
2:55 AM 28.4 °F 23.3 °F 23.0 °F 80% 30.30 in 10.0 mi ESE 4.6 mph - N/A   Scattered Clouds
3:15 AM 30.2 °F - 23.0 °F 75% 30.30 in 10.0 mi Calm Calm - N/A   Scattered Clouds
3:35 AM 28.4 °F 24.6 °F 23.0 °F 80% 30.30 in 10.0 mi ESE 3.5 mph - N/A   Mostly Cloudy
3:55 AM 28.4 °F - 23.0 °F 80% 30.30 in 10.0 mi Calm Calm - N/A   Mostly Cloudy
4:15 AM 28.4 °F 24.6 °F 23.0 °F 80% 30.30 in 10.0 mi SE 3.5 mph - N/A   Mostly Cloudy
4:35 AM 28.4 °F - 23.0 °F 80% 30.30 in 10.0 mi Calm Calm - N/A   Overcast
4:55 AM 23.0 °F - 17.6 °F 80% 30.30 in 10.0 mi Calm Calm - N/A   Overcast
5:15 AM 26.6 °F - 23.0 °F 86% 30.30 in 10.0 mi Calm Calm - N/A   Overcast
5:35 AM 26.6 °F - 23.0 °F 86% 30.30 in 10.0 mi Calm Calm - N/A   Overcast
6:15 AM 26.6 °F 21.2 °F 21.2 °F 80% 30.30 in 9.0 mi East 4.6 mph - N/A   Overcast
6:35 AM 26.6 °F 21.2 °F 21.2 °F 80% 30.31 in 10.0 mi East 4.6 mph - N/A   Overcast
6:55 AM 24.8 °F 19.1 °F 19.4 °F 80% 30.31 in 9.0 mi ENE 4.6 mph - N/A   Mostly Cloudy
7:15 AM 24.8 °F 20.5 °F 19.4 °F 80% 30.31 in 9.0 mi NE 3.5 mph - N/A   Scattered Clouds
7:35 AM 24.8 °F 17.9 °F 19.4 °F 80% 30.32 in 8.0 mi NE 5.8 mph - N/A   Clear
7:55 AM 24.8 °F 20.5 °F 21.2 °F 86% 30.33 in 8.0 mi East 3.5 mph - N/A   Clear
8:15 AM 26.6 °F 22.6 °F 23.0 °F 86% 30.33 in 7.0 mi East 3.5 mph - N/A   Clear
8:35 AM 28.4 °F 23.3 °F 24.8 °F 86% 30.34 in 8.0 mi NE 4.6 mph - N/A   Clear
8:55 AM 32.0 °F 28.7 °F 23.0 °F 69% 30.34 in 8.0 mi NE 3.5 mph - N/A   Clear
9:15 AM 32.0 °F - 24.8 °F 75% 30.34 in 7.0 mi Calm Calm - N/A   Clear
9:35 AM 35.6 °F 30.7 °F 26.6 °F 70% 30.34 in 7.0 mi SE 5.8 mph - N/A   Clear
9:50 AM 37.4 °F 32.1 °F 26.6 °F 65% 30.33 in 8.0 mi SSE 6.9 mph - N/A   Clear
10:15 AM 41.0 °F 35.8 °F 28.4 °F 61% 30.33 in 8.0 mi SE 8.1 mph - N/A   Clear
10:35 AM 42.8 °F 38.6 °F 28.4 °F 57% 30.33 in 10.0 mi SE 6.9 mph - N/A   Clear
10:50 AM 44.6 °F 40.2 °F 28.4 °F 53% 30.32 in 8.0 mi SE 8.1 mph - N/A   Clear
11:10 AM 46.4 °F 41.9 °F 30.2 °F 53% 30.31 in 10.0 mi SSE 9.2 mph - N/A   Clear
11:30 AM 48.2 °F - 30.2 °F 50% 30.30 in 10.0 mi SE 10.4 mph - N/A   Clear
11:50 AM 50.0 °F - 30.2 °F 47% 30.29 in 9.0 mi SSE 10.4 mph - N/A   Clear
12:10 PM 50.0 °F - 32.0 °F 50% 30.28 in 10.0 mi SSE 10.4 mph - N/A   Clear
12:50 PM 53.6 °F - 30.2 °F 41% 30.25 in 10.0 mi South 11.5 mph - N/A   Clear
1:15 PM 55.4 °F - 32.0 °F 41% 30.23 in 10.0 mi SSE 13.8 mph 17.3 mph N/A   Clear
1:35 PM 55.4 °F - 32.0 °F 41% 30.22 in 10.0 mi SSE 11.5 mph - N/A   Clear
1:50 PM 57.2 °F - 32.0 °F 38% 30.21 in 10.0 mi South 12.7 mph - N/A   Clear
2:10 PM 57.2 °F - 32.0 °F 38% 30.21 in 10.0 mi South 15.0 mph 19.6 mph N/A   Clear
2:30 PM 57.2 °F - 32.0 °F 38% 30.20 in 10.0 mi SSE 11.5 mph 20.7 mph N/A   Clear
2:55 PM 59.0 °F - 32.0 °F 36% 30.18 in 10.0 mi SSE 16.1 mph - N/A   Clear
3:10 PM 59.0 °F - 32.0 °F 36% 30.17 in 10.0 mi SE 11.5 mph - N/A   Clear
3:35 PM 60.8 °F - 32.0 °F 34% 30.17 in 10.0 mi South 12.7 mph 18.4 mph N/A   Clear
3:50 PM 60.8 °F - 32.0 °F 34% 30.16 in 10.0 mi South 13.8 mph - N/A   Clear
4:10 PM 59.0 °F - 32.0 °F 36% 30.16 in 10.0 mi South 10.4 mph - N/A   Clear
4:30 PM 59.0 °F - 32.0 °F 36% 30.16 in 10.0 mi South 12.7 mph 18.4 mph N/A   Clear
4:50 PM 57.2 °F - 32.0 °F 38% 30.16 in 10.0 mi South 12.7 mph - N/A   Clear
5:10 PM 55.4 °F - 32.0 °F 41% 30.16 in 10.0 mi South 9.2 mph - N/A   Clear
5:30 PM 50.0 °F - 32.0 °F 50% 30.15 in 10.0 mi South 9.2 mph - N/A   Clear
5:50 PM 50.0 °F - 32.0 °F 50% 30.15 in 8.0 mi SSE 9.2 mph - N/A   Clear
6:30 PM 48.2 °F - 32.0 °F 54% 30.15 in 8.0 mi SE 6.9 mph - N/A   Partly Cloudy
6:45 PM 46.4 °F 41.9 °F 32.0 °F 57% 30.15 in 9.0 mi SE 9.2 mph - N/A   Partly Cloudy
7:10 PM 48.2 °F - 33.8 °F 58% 30.15 in 8.0 mi SSE 11.5 mph - N/A   Partly Cloudy
7:30 PM 44.6 °F 38.4 °F 33.8 °F 66% 30.14 in 10.0 mi SSE 12.7 mph - N/A   Partly Cloudy
7:55 PM 46.4 °F 41.1 °F 33.8 °F 62% 30.14 in 10.0 mi SSE 11.5 mph - N/A   Partly Cloudy
8:15 PM 44.6 °F 38.8 °F 33.8 °F 66% 30.14 in 10.0 mi SSE 11.5 mph - N/A   Partly Cloudy
8:35 PM 44.6 °F 38.4 °F 33.8 °F 66% 30.13 in 10.0 mi SSE 12.7 mph - N/A   Partly Cloudy
8:50 PM 44.6 °F 38.4 °F 35.6 °F 71% 30.13 in 10.0 mi SSE 12.7 mph - N/A   Clear
9:10 PM 44.6 °F 38.4 °F 35.6 °F 71% 30.12 in 10.0 mi SSE 12.7 mph - N/A   Clear
9:30 PM 44.6 °F 38.8 °F 35.6 °F 71% 30.12 in 10.0 mi SSE 11.5 mph - N/A   Clear
9:50 PM 41.0 °F 35.8 °F 33.8 °F 76% 30.12 in 10.0 mi SE 8.1 mph - N/A   Clear
10:10 PM 41.0 °F 35.8 °F 33.8 °F 76% 30.11 in 10.0 mi SE 8.1 mph - N/A   Clear
10:30 PM 41.0 °F 35.8 °F 33.8 °F 76% 30.10 in 10.0 mi SSE 8.1 mph - N/A   Clear
10:50 PM 41.0 °F 35.8 °F 33.8 °F 76% 30.09 in 10.0 mi SE 8.1 mph - N/A   Clear
11:10 PM 39.2 °F 34.2 °F 33.8 °F 81% 30.09 in 10.0 mi SE 6.9 mph - N/A   Clear
11:30 PM 39.2 °F 33.6 °F 32.0 °F 75% 30.08 in 10.0 mi SSE 8.1 mph - N/A   Clear